Tracking 33190 objects as of 9-Feb-2026
HD Live streaming from Space Station
objects crossing your sky now

STARLINK-2581

Track STARLINK-2581 now!
10-day predictions
STARLINK-2581 is classified as:


NORAD ID: 48412
Int'l Code: 2021-038BM
Perigee: 553.3 km
Apogee: 555.4 km
Inclination: 53.1 °
Period: 95.6 minutes
Semi major axis: 6925 km
RCS: Unknown
Launch date: May 4, 2021
Source: United States (US)
Launch site: AIR FORCE EASTERN TEST RANGE (AFETR)
Your satellite tracking list
Your tracking list is empty




NASA's NSSDC Master Catalog

Two Line Element Set (TLE):
1 48412U 21038BM  26040.45181620 -.00001467  00000-0 -79579-4 0  9993
2 48412  53.0552  58.8172 0001545  96.8484 263.2681 15.06407966263751
Source of the keplerian elements: AFSPC